Location: Ferchesar
(52.6477°N, 12.4298°E)
Time: 20:18:01
(UTC+02:00)

A-11 Canister half - Pass Details

Date: 04 March 2021
Orbit: 1525 x 1683 km, 47.3° (Epoch: 11 April)

Event Time Altitude Azimuth Distance (km) Brightness Sun altitude
Exits shadow 03:37:05 23° 177° (S) 2,910 10.2 -29.1°
Maximum altitude 03:41:06 31° 141° (SE) 2,514 10.1 -28.6°
Drops below altitude 10° 03:48:54 10° 84° (E) 3,734 11.8 -27.5°
Sets 03:52:22 0° 75° (ENE) 4,703 12.8 -27.1°
